Weather in Benevskoye

Russia / Primorsky Krai     43°10′08″N   133°45′31″E
temp.,
°C
wind,
m/s
gust,
m/s
humid.,
%
clouds,
%
prec.,
mm/h
press.,
hPa
HPBL,
m
25 july, sun
sun2501:00+20w11920 0.6 101111
04:00+19wnw11915 0.6 101111
07:00+20wnw11875 0.0 101111
10:00+28ssw125078 0.0 1010586
13:00+32sw224054 0.0 10091663
16:00+32sw2241100 0.0 10071926
19:00+28s236564 0.0 1008187
22:00+21sw118999 0.0 101017
26 july, mon
mon2601:00+19wsw2291100 0.0 101023
04:00+18nw119544 0.0 100911
07:00+19w118872 0.0 100924
10:00+26s12595 0.0 1008742
13:00+30s22455 0.0 10071570
16:00+31s334624 0.0 10051691
19:00+26s23712 0.0 1006441
22:00+20sw119726 0.0 100711
27 july, tue
tue2701:00+19wnw119734 0.0 100711
04:00+19nw119780 0.0 100611
07:00+20nw11935 0.0 100630
10:00+28n12610 0.0 1005647
13:00+33ene13420 0.0 10031960
16:00+33sse344251 0.0 10012023
19:00+27s227158 0.1 1002407
22:00+21ese009611 1.5 100411
28 july, wed
wed2801:00+21nw119540 0.1 100311
04:00+20nnw119640 0.1 100311
07:00+21ne11963 0.3 100323
10:00+26se11780 1.2 1003372
13:00+29nw126210 2.3 10011114
16:00+24ese238596 3.9 1001298
19:00+22s239739 1.6 1002174
22:00+20w119984 4.8 100327
29 july, thu
thu2901:00+20nnw01985 0.4 100212
04:00+19nw11986 0.6 100211
07:00+20sse00961 0.0 100122
10:00+26ssw11707 0.0 1001574
13:00+30sw125766 0.3 9991400
16:00+30ssw1260100 1.1 998949
19:00+22nne129723 15.8 100075
22:00+20wnw119754 15.9 100119